Location: Northcutt
(34.7304°N, 84.4305°W)
Time: 04:30:36
(UTC+00:00)

A-11 Canister half - Pass Details

Date: 11 October 2022
Orbit: 1524 x 1685 km, 47.3° (Epoch: 01 December)

Event Time Altitude Azimuth Distance (km) Brightness Sun altitude
Rises 00:54:21 0° 305° (NW) 4,693 12.6 -22.4°
Reaches altitude 10° 00:57:22 10° 305° (NW) 3,721 11.9 -23.0°
Maximum altitude 01:06:49 90° 222° (SW) 1,577 8.9 -24.9°
Enters shadow 01:11:13 39° 128° (SE) 2,242 9.4 -25.8°
Drops below altitude 10° 01:16:35 10° 128° (SE) 3,830 - -26.9°
Sets 01:19:43 0° 129° (SE) 4,836 - -27.5°
